Prescott, AZ

6:33 PM MST on November 13, 2019 (GMT -0700)
Love

Weather History for KPRC - September, 2019

Change the Weather History Date:

Monday, September 23, 2019

  Actual Average Record
Temperature  
Mean Temperature 63 °F 65 °F  
Max Temperature 73 °F 80 °F 90 °F (2001)
Min Temperature 53 °F 51 °F 38 °F (2006)
Degree Days  
Heating Degree Days 2    
Month to date heating degree days 9  
Since 1 July heating degree days 9  
Cooling Degree Days 0    
Month to date cooling degree days 155  
Year to date cooling degree days 1130  
Growing Degree Days 13 (Base 50)    
Moisture  
Dew Point 49 °F    
Average Humidity 69    
Maximum Humidity 93    
Minimum Humidity 33    
Precipitation  
Precipitation 0.23 in 0.05 in 5.39 in (1983)
Month to date precipitation 1.62 1.22  
Year to date precipitation 9.73 10.88  
Sea Level Pressure  
Sea Level Pressure 30.00 in    
Wind  
Wind Speed 6 mph ()    
Max Wind Speed 21 mph    
Max Gust Speed 24 mph    
Visibility 8.7 miles    
Events Rain , Thunderstorm    
T = Trace of Precipitation, MM = Missing Value Source: Averaged Metar Reports

Daily Weather History Graph

Daily Weather History Graph

Search for Another Location

Airport or City:

Astronomy

Sep. 23, 2019 Rise Set
Actual Time 6:18 AM MST 6:25 PM MST
Civil Twilight 5:53 AM MST 6:50 PM MST
Nautical Twilight 5:23 AM MST 7:19 PM MST
Astronomical Twilight 4:54 AM MST 7:49 PM MST
Moon 12:20 AM MST (9/23) 3:06 PM MST (9/23)
Length of Visible Light 12h 57m
Length of Day
12h 06m
Waning Crescent, 32% of the Moon is Illuminated
Sep 23
Waning Crescent
Sep 28
New
Oct 5
First Quarter
Oct 13
Full
Oct 21
Last Quarter

Hourly Weather History & Observations

Time (MST) Temp. Dew Point Humidity Pressure Visibility Wind Dir Wind Speed Gust Speed Precip Events Conditions
12:53 AM 63.0 °F 33.1 °F 33% 29.91 in 10.0 mi SSW 6.9 mph - N/A   Partly Cloudy
1:53 AM 63.0 °F 36.0 °F 37% 29.91 in 10.0 mi SSW 6.9 mph - N/A   Mostly Cloudy
2:53 AM 60.1 °F 37.9 °F 44% 29.90 in 10.0 mi SSW 4.6 mph - N/A   Partly Cloudy
3:53 AM 62.1 °F 39.0 °F 43% 29.90 in 10.0 mi SSW 5.8 mph - N/A   Mostly Cloudy
4:53 AM 62.1 °F 39.9 °F 44% 29.90 in 10.0 mi WSW 6.9 mph - N/A   Overcast
5:53 AM 63.0 °F 41.0 °F 45% 29.92 in 10.0 mi Calm Calm - N/A   Overcast
6:53 AM 63.0 °F 41.0 °F 45% 29.94 in 10.0 mi SSE 8.1 mph - N/A   Mostly Cloudy
7:53 AM 66.0 °F 54.0 °F 65% 29.95 in 10.0 mi South 6.9 mph - N/A   Scattered Clouds
8:53 AM 71.1 °F 48.9 °F 45% 29.97 in 10.0 mi SE 5.8 mph - N/A   Mostly Cloudy
9:53 AM 69.1 °F 44.1 °F 40% 29.97 in 10.0 mi NNW 10.4 mph - N/A   Mostly Cloudy
10:53 AM 66.9 °F 45.0 °F 45% 29.98 in 10.0 mi Calm Calm - 0.00 in   Mostly Cloudy
11:53 AM 62.1 °F 55.9 °F 80% 29.98 in 10.0 mi SE 11.5 mph - N/A   Overcast
12:38 PM 63.0 °F 59.0 °F 87% 30.16 in 10.0 mi SE 8.1 mph - N/A Rain Light Rain
12:53 PM 61.0 °F 59.0 °F 93% 29.99 in 7.0 mi SSE 12.7 mph 17.3 mph N/A Rain , Thunderstorm Light Rain
1:07 PM 60.1 °F 57.0 °F 90% 30.19 in 2.5 mi NW 18.4 mph 23.0 mph 0.03 in Rain , Thunderstorm Thunderstorms and Rain
1:25 PM 55.0 °F 53.1 °F 93% 30.17 in 1.0 mi NNW 10.4 mph - 0.16 in Rain , Thunderstorm Heavy Thunderstorms and Rain
1:37 PM 55.0 °F 52.0 °F 89% 30.18 in 4.0 mi Variable 3.5 mph - 0.18 in Rain , Thunderstorm Light Thunderstorms and Rain
1:48 PM 55.4 °F 51.8 °F 88% 30.16 in 2.5 mi SE 10.4 mph - 0.21 in Rain , Thunderstorm Rain
1:53 PM 55.0 °F 53.1 °F 93% 30.01 in 3.0 mi ESE 5.8 mph - 0.22 in Rain , Thunderstorm Light Rain
2:29 PM 55.9 °F 54.0 °F 93% 30.19 in 10.0 mi South 6.9 mph - 0.00 in   Mostly Cloudy
2:53 PM 57.0 °F 53.1 °F 87% 30.00 in 10.0 mi SSW 3.5 mph - 0.00 in   Mostly Cloudy
3:53 PM 60.1 °F 53.1 °F 78% 29.97 in 10.0 mi South 15.0 mph 23.0 mph N/A   Clear
4:53 PM 60.1 °F 52.0 °F 75% 29.97 in 10.0 mi Variable 6.9 mph - N/A   Clear
5:53 PM 60.1 °F 48.9 °F 67% 29.96 in 10.0 mi ESE 5.8 mph - N/A   Partly Cloudy
6:53 PM 59.0 °F 48.9 °F 69% 29.96 in 10.0 mi East 4.6 mph - N/A   Mostly Cloudy
7:53 PM 57.9 °F 51.1 °F 78% 29.96 in 10.0 mi NNE 5.8 mph - N/A   Clear
8:53 PM 55.9 °F 53.1 °F 90% 29.98 in 10.0 mi NNW 9.2 mph - N/A   Partly Cloudy
9:53 PM 55.0 °F 48.9 °F 80% 30.01 in 10.0 mi NNW 11.5 mph - N/A   Partly Cloudy
10:53 PM 55.0 °F 46.0 °F 72% 30.00 in 10.0 mi North 5.8 mph - N/A   Mostly Cloudy
11:53 PM 54.0 °F 46.9 °F 77% 30.01 in 10.0 mi SW 5.8 mph - N/A   Clear